Погода в Большом Захарьевском

Россия / Смоленская область     54°41′46″N   33°51′29″E
темп.,
°C
ветер,
м/с
пор.,
м/с
влажн.,
%
обл.,
%
осадки,
мм/ч
давл.,
гПа
погр.,
м
12 мая, ср
ср1200:00+11вюв310961 0.0 1024265
03:00+9вюв279813 0.0 1024170
06:00+8юв27962 0.0 1025264
09:00+13юв25580 0.0 1025772
12:00+16в254286 0.0 10231438
15:00+12всв266987 0.0 1021294
18:00+13с2871100 0.1 1016573
21:00+8ю3797100 2.4 1015279
13 мая, чт
чт1300:00+8юв4119493 0.1 1017726
03:00+5в3109816 0.1 1017286
06:00+6в41296100 0.0 1016414
09:00+10вюв51288100 0.1 1015892
12:00+13юв5971100 0.8 10141403
15:00+14юв5872100 2.3 10131297
18:00+12ююв477923 2.2 1012847
21:00+8ююв289561 2.5 1013192
14 мая, пт
пт1400:00+6ююв269610 0.0 1014127
03:00+6юв2896100 0.0 1015172
06:00+7вюв299397 0.0 1014236
09:00+11юв31088100 0.0 1014410
12:00+18юв576054 0.0 10121070
15:00+19юв586333 0.3 10101435
18:00+17юв378499 2.2 1008399
21:00+13ююв249797 7.9 100879
15 мая, сб
сб1500:00+12ю229716 1.3 100938
03:00+11ююв11965 1.3 100810
06:00+11юв2498100 1.1 100899
09:00+17ююв24849 1.2 1007444
12:00+19ююв357590 2.2 1007993
15:00+19ю476913 4.1 10061144
18:00+17ююз48815 1.9 1007940
21:00+13ююз4119340 2.3 1008485
16 мая, вс
вс1600:00+11ююз3109826 0.0 1009380
03:00+10ююз389928 0.0 1011251
06:00+10ююз279713 0.0 1011236
09:00+15ююз48759 0.0 1012706
12:00+17юз476288 0.3 10121302
15:00+19юз465591 0.5 10121730
18:00+18зюз346334 0.1 10121100
21:00+13зсз118839 0.1 101410